Location: Unspecified
(0.0000°N, 0.0000°E)
Time: 09:34:37
(UTC+00:00)

deb r/b Ablestar - Visible Passes

Search period start: 10 December 2025 00:00
Search period end: 20 December 2025 00:00
Orbit: 948 x 1966 km, 67.9° (Epoch: 09 December)

Date Brightness Start Highest point End Pass type
(mag) Time Alt. Az. Time Alt. Az. Time Alt. Az.
10 Dec ? 18:17:56 10° N 18:26:58 34° ENE 18:34:32 10° SE visible
10 Dec ? 20:16:19 10° NW 20:25:04 35° WSW 20:32:23 10° SSW visible
11 Dec ? 19:14:35 10° NNW 19:24:51 81° WSW 19:33:04 10° SSE visible
12 Dec ? 18:14:31 10° N 18:24:16 47° ENE 18:32:13 10° SE visible
12 Dec ? 20:14:41 10° NW 20:22:02 25° WSW 20:28:25 10° SSW visible
13 Dec ? 19:12:04 10° NNW 19:21:55 59° WSW 19:29:51 10° S visible
14 Dec ? 18:11:22 10° N 18:21:29 65° ENE 18:29:36 10° SSE visible
14 Dec ? 20:13:47 10° WNW 20:19:00 16° WSW 20:23:44 10° SW visible
15 Dec ? 19:09:49 10° NW 19:18:54 42° WSW 19:26:23 10° S visible
16 Dec ? 18:08:28 10° NNW 18:18:37 87° ENE 18:26:43 10° SSE visible
17 Dec ? 04:41:00 10° SE 04:45:13 16° ESE 04:49:52 10° ENE visible
17 Dec ? 19:07:56 10° NW 19:15:51 29° WSW 19:22:35 10° SSW visible
18 Dec ? 18:05:48 10° NNW 18:15:42 69° WSW 18:23:37 10° S visible
19 Dec ? 04:36:21 10° SSE 04:42:09 24° ESE 04:48:51 10° NE visible
19 Dec ? 19:06:35 10° WNW 19:12:48 20° WSW 19:18:18 10° SSW visible
